Content
SEND FEEDBACK

Daily
Averages
Monthly
Summary
United States of America

ASHVILLE, NORTH CAROLINA


Home > North America > United States > North Carolina
Elevation: 2240 feet     Latitude: 35 36N     Longitude: 082 32W

WEATHER
 
SELECT A DAY
Number of Records: 228,757;   Date Range: 1/1/95 - 9/30/14
 
SHARE

PRINT THIS DATA

[ ← Previous Day ]
WEATHER ALMANAC - MARCH 23, 2013
[ Next Day → ]
[ °C ]   °F
Weather ElementAverageHighLow
Temperature44.2 °F57 °F (4:54 pm)37 °F (2:54 am)
Dewpoint34.7 °F41 °F (6:54 pm)24.1 °F (2:54 am)
Humidity70.1 %89 % (7:54 am)53 % (4:54 pm)
Barometer29.94 in30.01 in (9:54 am)29.86 in (5:54 pm)
Wind Speed2.3 mph10.4 mph (5:54 pm)
Weather ElementAverage
Visibility10 mi
Wind DirectionE (90 °)

Weather ElementTotal
Precipitation0.03 in
Heating Degree Days18 (Base 65)
Averaged from 26 records on March 23, 2013
WEATHER CONDITIONS BREAKOUT
WIND DIRECTION BREAKOUT
WEATHER BY HOUR - MARCH 23, 2013
[ °C ]   °F
Local TimeTemperatureDewpointHumidityBarometerVisibilityWind DirectionWind SpeedGust SpeedPrecipitationEventsConditions
1:54 AM37.9 °F25.0 °F60 %29.99 in10.0 miCalmOvercast
2:54 AM37.0 °F24.1 °F59 %29.98 in10.0 miCalmOvercast
3:54 AM37.9 °F25.0 °F60 %29.96 in10.0 miCalmOvercast
4:54 AM37.0 °F27.0 °F67 %29.95 in10.0 miCalmOvercast
5:54 AM37.9 °F26.1 °F62 %29.95 in10.0 miCalmOvercast
6:54 AM37.9 °F30.0 °F73 %29.97 in10.0 miCalm0.00 inRainLight Rain
7:54 AM37.0 °F34.0 °F89 %29.97 in10.0 miCalm0.03 inRainLight Rain
8:54 AM37.0 °F34.0 °F89 %30.00 in10.0 miCalm0.00 inOvercast
9:47 AM39.2 °F33.8 °F81 %30.00 in10.0 miCalmOvercast
9:54 AM39.0 °F34.0 °F82 %30.01 in10.0 miCalmOvercast
10:54 AM39.9 °F35.1 °F83 %30.00 in10.0 miCalmOvercast
11:02 AM41.0 °F35.6 °F81 %29.99 in10.0 miNorth (10°)4.6 mphOvercast
11:54 AM42.1 °F36.0 °F79 %29.99 in10.0 miNW (310°)3.5 mphOvercast
12:54 PM45.0 °F35.1 °F68 %29.98 in10.0 miCalmOvercast
1:54 PM46.9 °F37.0 °F68 %29.96 in10.0 miCalmOvercast
2:26 PM48.2 °F35.6 °F62 %29.93 in10.0 miCalmOvercast
2:54 PM50.0 °F37.9 °F63 %29.92 in10.0 miCalmOvercast
3:54 PM55.9 °F39.9 °F55 %29.89 in10.0 miNNW (340°)4.6 mphMostly Cloudy
4:54 PM57.0 °F39.9 °F53 %29.88 in10.0 miNNW (340°)8.1 mphPartly Cloudy
5:54 PM55.9 °F39.9 °F55 %29.86 in10.0 miNorth (350°)10.4 mphPartly Cloudy
6:54 PM54.0 °F41.0 °F62 %29.88 in10.0 miNNW (330°)8.1 mphClear
7:54 PM52.0 °F39.9 °F63 %29.88 in10.0 miCalmMostly Cloudy
8:54 PM48.9 °F37.9 °F66 %29.90 in10.0 miSouth (170°)6.9 mphClear
9:54 PM46.0 °F39.9 °F79 %29.89 in10.0 miSSE (160°)6.9 mphClear
10:54 PM44.1 °F39.0 °F82 %29.90 in10.0 miSouth (180°)3.5 mphScattered Clouds
11:54 PM45.0 °F39.9 °F82 %29.86 in10.0 miSSE (150°)3.5 mphOvercast
Hourly data recorded from KAVL, located miles away from Ashville, North Carolina







STORIES FROM OUR PARTNERS